COSMOS 249 DEB, 3911

Orbit data source: Space-Track

COSMOS 249 DEB, 3911 is space debris in LEO originally from a launch on Sun, 20 Oct 1968 UTC launched from the Tyuratam Missile And Space Complex (TTMTR). Debris objects in space refer to the collection of defunct objects orbiting the Earth. Examples of debris include non-operational satellites, rocket bodies, and fragments generated from explosions, collisions, or faulty payload assembly.

Loading next visibility...
Identifier
3911, 1968-091BP
Orbit
LEO
Country
Flag of CISCIS
Related business
Manufacturer
Unknown
Mission
Spacecraft
Bus & Motor
Unknown
Mass
Unknown
Launch date (UTC)
1968-10-20 (57 years ago)
Launch vehicle
Unknown
Launch site
Tyuratam Missile And Space Complex (TTMTR)
Object type
Payload
Rocket body
Debris
Shape & HBR
Unknown shape, 0.1 m
Radar Cross Section
Small (<0.1 m²)

Expand to show TLE details & history
Last TLE update: 19 hours ago

TLE from 19 hours ago
0 COSMOS 249 DEB
1 03911U 68091BP  26035.22617660  .00002308  00000-0  61352-3 0  9997
2 03911  62.9190  87.4850 0793678  69.7850 298.6673 13.41747621649477
Epoch: 2026-02-04T05:25Z
TLE epoch observation values (Epoch: 2026-02-04T05:25:41.658Z)
Latitude
-0.00005°
Longitude
-128.3344°
Altitude
857.966 km
Speed
7.545 km/s
True Right ascension
05h 49m 56s
True Declination
0° 00' 00"
Sunlit
Object was in full shadow at epoch
Visualization orbit readout
Latitude
Unknown
Longitude
Unknown
Altitude
Unknown
Speed
Unknown
Apparent Right ascension
Unknown
Apparent Declination
Unknown
Sunlit
N/A
Visualization observer readout
Local Sidereal Time
02:50:57
Azimuth
Unknown
Elevation
Unknown
Doppler factor
Unknown
Orbital elements
Apogee altitude
1,695.312 km
Perigee altitude
508.002 km
Semi-major axis
7,479.794 km
Eccentricity
0.07937
Inclination
62.919°
RAAN
87.485°
Arg. of periapsis
69.785°
True anomaly
290.31915°
Mean anomaly
298.6673°
Eccentric anomaly
294.5303°
Mean motion
3.35513 °/min
Orbital period
107.3 mins
BSTAR
0.00061352
Loading maneuver chart data...
Computing Atmospheric mass density...

Documentation

Showing up to 5 results
|